Torna al catalogo

YAOGAN 9C

AttivoMilitareLEO
NORAD 36415·PAYLOAD·🇨🇳 China

Lanciato Mar 5, 2010 da Jiuquan Satellite Launch Center

Loading…

Prossimi Passaggi (prossime 24 ore)

TLE

AggiornatoSource: Space-Track

Epoca: Sep 14, 2026, 15:31 UTC

1 36415U 10009C   26257.64675222 -.00000003  00000-0  61386-4 0  9997
2 36415  63.3631 126.8349 0546667  21.9503 340.3994 13.45725843811947

Traccia YAOGAN 9C in tempo reale con AllMySat

Download on the App Store